This is the latest recevied weather packets stored in our database for station/object HB9CJD-1. If no packets are shown the sender has not sent any weather packets the latest 1 day(s).
| Time | Temp. | Humidity | Pressure | Rain* | Wind** | Luminosity | Snow |
|---|---|---|---|---|---|---|---|
| 1777988515 | 20° C | 51% | 1011.1 hPa | - | 0 m/s | - | - |
| 1777987912 | 19.44° C | 57% | 1011.2 hPa | - | 0 m/s | - | - |
| 1777987912 | 19.44° C | 57% | 1011.2 hPa | - | 0 m/s | - | - |
| 1777987308 | 18.33° C | 55% | 1011.4 hPa | - | 0 m/s | - | - |
| 1777987308 | 18.33° C | 55% | 1011.4 hPa | - | 0 m/s | - | - |
| 1777986705 | 17.22° C | 58% | 1011.6 hPa | - | 0 m/s | - | - |
| 1777986705 | 17.22° C | 58% | 1011.6 hPa | - | 0 m/s | - | - |
| 1777986102 | 18.33° C | 64% | 1011.5 hPa | - | 0 m/s | - | - |
| 1777986102 | 18.33° C | 64% | 1011.5 hPa | - | 0 m/s | - | - |
| 1777985499 | 17.22° C | 68% | 1011.5 hPa | - | 0 m/s | - | - |
| 1777985499 | 17.22° C | 68% | 1011.5 hPa | - | 0 m/s | - | - |
| 1777984895 | 17.22° C | 65% | 1011.5 hPa | - | 0 m/s | - | - |
| 1777984895 | 17.22° C | 65% | 1011.5 hPa | - | 0 m/s | - | - |
| 1777984292 | 17.22° C | 66% | 1011.6 hPa | - | 0 m/s | - | - |
| 1777984292 | 17.22° C | 66% | 1011.6 hPa | - | 0 m/s | - | - |
| 1777983689 | 16.11° C | 70% | 1011.7 hPa | - | 0 m/s | - | - |
| 1777983689 | 16.11° C | 70% | 1011.7 hPa | - | 0 m/s | - | - |
| 1777983086 | 16.11° C | 68% | 1011.7 hPa | - | 0 m/s | - | - |
| 1777983086 | 16.11° C | 68% | 1011.7 hPa | - | 0 m/s | - | - |
| 1777982482 | 16.11° C | 68% | 1011.8 hPa | - | 0 m/s | - | - |
| 1777982482 | 16.11° C | 68% | 1011.8 hPa | - | 0 m/s | - | - |
| 1777981879 | 16.11° C | 74% | 1011.8 hPa | - | 0 m/s | - | - |
| 1777981879 | 16.11° C | 74% | 1011.8 hPa | - | 0 m/s | - | - |
| 1777981276 | 16.11° C | 74% | 1011.8 hPa | - | 0 m/s | - | - |
| 1777981276 | 16.11° C | 74% | 1011.8 hPa | - | 0 m/s | - | - |
* Rain since midnight (hover to see other rain measurements)
** Current wind speed in m/s (hover to see current wind gust speed)